ATLAS 5 CENTAUR DEB, 49366

Orbit data source: Space-Track

ATLAS 5 CENTAUR DEB, 49366 is space debris in HEO originally from a launch on Wed, 17 Oct 2018 UTC launched from the Air Force Eastern Test Range (AFETR). Debris objects in space refer to the collection of defunct objects orbiting the Earth. Examples of debris include non-operational satellites, rocket bodies, and fragments generated from explosions, collisions, or faulty payload assembly.

Loading next visibility...
Identifier
49366, 2018-079FT
Orbit
HEO
Country
Flag of USUS
Related business
Flag of USUnited Launch Alliance/Lockheed Martin (US)
Manufacturer
ULA Decatur
Mission
Spacecraft
Bus & Motor
Unknown
Mass
Unknown
Launch date (UTC)
2018-10-17 (8 years ago)
Launch vehicle
Unknown
Launch site
Air Force Eastern Test Range (AFETR)
Object type
Payload
Rocket body
Debris
Shape & HBR
Unknown shape, 1.1 m
Radar Cross Section
RCS unknown

Expand to show TLE details & history
Last TLE update: 4 days ago

TLE from 4 days ago
0 ATLAS 5 CENTAUR DEB
1 49366U 18079FT  26169.49147244 -.00000128  00000-0  00000-0 0  9994
2 49366  14.3266  40.9128 5177417 288.1357  23.5572  1.65064098 29398
Epoch: 2026-06-18T11:47Z
TLE epoch observation values (Epoch: 2026-06-18T11:47:43.218Z)
Latitude
0.00013°
Longitude
-42.76837°
Altitude
12,723.111 km
Speed
5.344 km/s
True Right ascension
02h 43m 34s
True Declination
0° 00' 00"
Sunlit
Object was in daylight at epoch
Visualization orbit readout
Latitude
Unknown
Longitude
Unknown
Altitude
Unknown
Speed
Unknown
Apparent Right ascension
Unknown
Apparent Declination
Unknown
Sunlit
N/A
Visualization observer readout
Local Sidereal Time
21:34:16
Azimuth
Unknown
Elevation
Unknown
Doppler factor
Unknown
Orbital elements
Apogee altitude
39,527.063 km
Perigee altitude
8,208.116 km
Semi-major axis
30,245.726 km
Eccentricity
0.51774
Inclination
14.3266°
RAAN
40.9128°
Arg. of periapsis
288.1357°
True anomaly
71.61721°
Mean anomaly
23.5572°
Eccentric anomaly
44.26072°
Mean motion
0.41262 °/min
Orbital period
872.48 mins
BSTAR
0
Loading maneuver chart data...
Computing Atmospheric mass density...

Documentation

Showing up to 5 results
|